CZ-6A DEB

Satellite information

Favourite Embed

Satellite Type and Status

DEBRISIN ORBIT

Key statistics

Satellite CZ-6A DEB at a glance.

Uptime

971

Days in orbit

Revolutions

≈ 14.0

Per day

Orbit

SSO

Sun Synchronous Orbit

Inclination

98.9

Latest

Satellite identification and parameters

Extended collection of information and parameters for CZ-6A DEB.

Object identification

Identified? True

Debris? True

Object name: CZ-6A DEB

International designator: 2022-151ABX

Object number (NORAD): 56255

Object ID (CCSDS): 56255

Country: PEOPLES REPUBLIC OF CHINA (PRC)

Current information (Y/N): Y

RCS size: SMALL

Orbital parameters

Period: 103.04 minutes

Inclination: 98.8913 deg

SMA: 7280.54 km

Apoapsis: 1006.179 km

Periapsis: 798.632 km

RAAN: 166.3956 deg

Eccentricy: 0.0142536

Argument of periapsis: 286.9697 deg

Mean anomaly: 71.5887 deg

Mean motion: 13.97517743 rev/day

Mean motion (dot): 0.00002011 rev/day2

B* drag term: 0.0013396 1/REarth

Two-line elements (TLE)

Creation date: July 8, 2025, 6:26 a.m.

Reference frame: TEME

Reference center: EARTH

Epoch: July 7, 2025, 9:50 p.m. UTC

TLE line 0: 0 CZ-6A DEB

TLE line 1: 1 56255U 22151ABX 25188.90991890 .00002011 00000-0 13396-2 0 9991

TLE line 2: 2 56255 98.8913 166.3956 0142536 286.9697 71.5887 13.97517743117087

Live tracking on map

Real-time ground track for satellite CZ-6A DEB.

In-orbit conjunctions

A list of the most updated potential collisions computed for object CZ-6A DEB.

Target Orbit TCA Probability of collision Miss distance Type
COSMOS 2266 LEO 2025-02-05 10:21:51 0.0001023214 77.0 (m) PAYLOAD
CZ-6A DEB SSO 2024-11-13 16:32:38 0.0002687411 284.0 (m) DEBRIS

Associated space launch

Chinese satellite reported for atmospheric/ocean/environmental/spatial parameter research purposes, details TBD.

CZ-6A DEB was lifted into orbit during the mission ‘Long March 6A | Yunhai 3’, on board a Long March 6A space rocket.

The launch took place on Nov. 11, 2022, 10:52 p.m. from Launch Complex 9A.

For more information about the launch, click the button.

Launch to space Long March 6A | Yunhai 3
Long March 6A | Yunhai 3

Agency: N/A

Status: Launch Successful

Launch date: Nov. 11, 2022, 10:52 p.m. UTC

Rocket: Long March 6A

Launch pad: Launch Complex 9A

Location: Taiyuan Satellite Launch Center, People's Republic of China

...

Latest news about this satellite

There are no fresh news available about this satellite. Check back as we update our databases every day.


Newsletter sign-up

Weekly statistics, charts and insights to help you stay on top of the space industry.